Zurück zum Katalog

TIANHUI 2-01B

AktivWissenschaftSSO
NORAD 44209·PAYLOAD·🇨🇳 China

Gestartet Apr 29, 2019 von Taiyuan Satellite Launch Center

Loading…

Nächste Überflüge (nächste 24 Stunden)

TLE

AktuellSource: Space-Track

Epoche: Sep 14, 2026, 11:40 UTC

1 44209U 19024C   26257.48631398  .00001263  00000-0  67794-4 0  9998
2 44209  97.4846 260.2513 0001993  93.0205 267.1257 15.16747997408243

Verfolge TIANHUI 2-01B in Echtzeit mit AllMySat

Download on the App Store